Other Surface Observations
Issued by NWS Charleston, SC

Home | Current Version | Previous Version | Text Only | Print | Product List | Glossary On
Versions: 1 2 3 4 5 6 7 8 9 10 11 12 13 14 15 16 17 18 19 20 21 22 23 24 25 26 27 28 29 30 31 32 33 34 35 36 37 38 39 40 41 42 43 44 45 46 47 48 49 50
000
SXUS52 KCHS 280626
OSOCHS

MARINE OBSERVATIONS
NATIONAL WEATHER SERVICE CHARLESTON SC
200 AM EDT TUE JUL 28 2015

...DOWNTOWN CHARLESTON AND HARBOR...

CITY           SKY/WX    TMP DP  RH WIND       PRES   REMARKS
WATERFRONT PRK   N/A     81  78  91 VRB3      29.93S

...LAKE MOULTRIE...

CITY           SKY/WX    TMP DP  RH WIND       PRES   REMARKS
PINOPOLIS      NOT AVBL

...LAKE AND SUPPLEMENTAL COASTAL OBSERVATIONS...

STATION/POSITION TIME  TEMP    WIND        PRES    WAVE   SWELL
                       AIR SEA DIR/SP/G            HT/PER HT/PER/DIR
                 (UTC) (F)     (DEG/KT/KT) (MB)    (FT/S) (FT/S/D)
FORT PULASKI     0600   81 85  110/  2/  2 1014.7F
SAPELO ISLAND    0600   77        CALM     1014.0S
UPR LAKE MARION  NOT AVBL
WINYAH BAY       0500   81      80/  5     1014.0
LAKE MURRAY      0600   83     130/  6/  8 1014.9F
ACE BASIN NERRS  NOT AVBL


...C-MAN AND BUOY OBSERVATIONS...

STATION/POSITION TIME  TEMP    WIND        PRES    WAVE   SWELL
                       AIR SEA DIR/SP/G            HT/PER HT/PER/DIR
                 (UTC) (F)     (DEG/KT/KT) (MB)    (FT/S) (FT/S/D)
BUOY 41004       0550   83 84   70/  4/  6 1013.7S   3/ 6   3/ 6
BUOY 41008       0550   81 82     CALM     1014.4F   2/ 7   2/110/ 7
FOLLY BEACH CMAN 0600   81      60/  6/  7 1014.6S
CAPERS NS BUOY   0508   82      70/  8/ 10 1014.5S
FRIPP NS BUOY    0500   83      70/  4/  4 1014.0F
5E ST. MARYS GA  0521      81                N/A     2/ 6


STATION/POSITION TIME  TEMP    WIND        PRES    WAVE   SWELL
                       AIR SEA DIR/SP/G            HT/PER HT/PER/DIR
                 (UTC) (F)     (DEG/KT/KT) (MB)    (FT/S) (FT/S/D)
FRYING PAN BUOY  0550   83 83   90/ 10/ 12 1015.0S   3/ 7   3/160/ 7
BUOY 41025       NOT AVBL
CAPE LOOKOUT NC  0600   80     100/  8/ 10 1015.6R
BUOY 41002       0550   82 82  240/ 12/ 14 1015.4R   5/ 6   5/230/ 6
BUOY 41010       0520   84 84  200/ 16/ 17 1015.3F
ST AUGUSTINE FL  0600   78 80  190/  4/  4 1014.7F

$$



USA.gov is the U.S. government's official web portal to all federal, state and local government web resources and services.